�N����,����,�~����,�C��,���x,�C��,����,���ϕ���,�ő�u�ԕ���,�ő厞����,���˗�,�I�_���x,�n�����x,�ő啗���N��,DTYPE
"20/07/08","00:10",0.0,23.1,93.6,1000.5,292.0,0.8,1.2,277.8,0.00,22.1,23.9,"00:04:16",1
"20/07/08","00:20",1.0,23.2,93.7,1000.5,305.7,0.8,1.6,333.1,0.00,22.2,24.0,"00:14:32",1
"20/07/08","00:30",0.4,23.1,93.8,1000.3,2.4,0.5,1.8,347.6,0.00,22.1,24.0,"00:20:24",1
"20/07/08","00:40",0.0,23.1,93.9,1000.0,258.9,0.3,1.1,233.1,0.00,22.1,23.9,"00:39:20",1
"20/07/08","00:50",0.2,23.1,93.9,1000.0,105.9,0.2,0.8,223.1,0.00,22.1,24.0,"00:40:08",1
"20/07/08","01:00",0.0,23.1,93.9,1000.3,32.1,0.3,0.6,348.0,0.00,22.1,24.0,"00:53:52",1
"20/07/08","01:10",0.2,23.2,94.0,1000.0,352.5,0.6,1.0,6.9,0.00,22.2,23.8,"01:01:36",1
"20/07/08","01:20",2.0,23.1,94.1,999.8,332.7,0.5,1.1,359.6,0.00,22.1,23.9,"01:13:20",1
"20/07/08","01:30",0.0,23.2,94.2,999.6,275.7,0.6,1.1,248.6,0.00,22.3,23.8,"01:21:04",1
"20/07/08","01:40",0.2,23.2,94.2,999.3,359.1,0.5,1.1,334.7,0.00,22.3,23.9,"01:35:36",1
"20/07/08","01:50",0.0,23.2,94.2,999.3,352.2,0.5,1.0,19.2,0.00,22.3,23.8,"01:46:00",1
"20/07/08","02:00",0.0,23.4,94.3,999.1,126.8,0.5,1.4,126.0,0.00,22.5,23.8,"01:58:00",1
"20/07/08","02:10",0.0,23.4,94.4,999.1,130.3,0.3,1.1,113.1,0.00,22.5,23.7,"02:08:56",1
"20/07/08","02:20",0.0,23.4,94.4,999.1,142.9,0.3,1.0,188.3,0.00,22.5,24.0,"02:18:16",1
"20/07/08","02:30",0.8,23.5,94.5,998.9,195.2,0.7,1.4,201.9,0.00,22.6,23.8,"02:22:56",1
"20/07/08","02:40",0.4,23.3,94.5,998.6,320.0,0.3,0.8,258.2,0.00,22.4,23.7,"02:32:08",1
"20/07/08","02:50",0.8,23.3,94.6,999.1,297.4,0.5,1.0,241.7,0.00,22.4,23.8,"02:41:36",1
"20/07/08","03:00",1.0,23.4,94.6,998.6,354.9,0.6,1.3,0.4,0.00,22.5,23.8,"02:55:36",1
"20/07/08","03:10",1.0,23.4,94.7,998.4,127.1,0.2,0.9,190.6,0.00,22.5,23.8,"03:06:16",1
"20/07/08","03:20",1.0,23.5,94.7,998.4,182.9,0.6,1.3,107.3,0.00,22.6,23.8,"03:11:52",1
"20/07/08","03:30",0.6,23.5,94.8,998.2,108.2,0.3,1.4,98.3,0.00,22.7,23.5,"03:26:40",1
"20/07/08","03:40",1.2,23.6,94.8,997.2,58.8,0.6,1.4,102.7,0.00,22.8,23.7,"03:36:32",1
"20/07/08","03:50",1.4,23.6,94.9,997.2,95.6,0.7,1.7,109.5,0.00,22.8,23.8,"03:46:32",1
"20/07/08","04:00",4.8,23.6,94.9,997.2,104.4,0.5,1.1,37.5,0.00,22.8,23.9,"03:51:20",1
"20/07/08","04:10",7.0,23.5,95.0,997.4,270.8,0.3,1.0,294.5,0.00,22.7,23.6,"04:06:40",1
"20/07/08","04:20",4.6,23.6,95.0,996.0,79.0,1.0,2.8,359.9,0.00,22.8,23.7,"04:19:28",1
"20/07/08","04:30",9.0,23.5,95.1,996.3,345.6,1.0,1.9,244.5,0.00,22.7,23.7,"04:23:06",1
"20/07/08","04:40",6.4,23.4,95.1,995.8,292.9,1.0,2.5,307.3,0.00,22.6,23.7,"04:35:36",1
"20/07/08","04:50",3.4,23.3,95.2,994.4,339.3,1.5,2.8,346.6,0.00,22.5,23.6,"04:46:16",1
"20/07/08","05:00",8.2,23.2,95.3,996.7,313.1,2.1,5.6,332.6,0.00,22.4,23.7,"04:57:06",1
"20/07/08","05:10",11.0,22.4,95.3,997.2,290.8,3.0,5.6,255.3,0.00,21.7,23.6,"05:05:30",1
"20/07/08","05:20",2.8,22.3,95.6,996.0,336.1,1.5,4.4,339.2,0.00,21.6,23.7,"05:13:06",1
"20/07/08","05:30",0.8,21.5,95.8,997.0,6.7,1.1,3.3,111.4,0.00,20.8,23.7,"05:23:04",1
"20/07/08","05:40",0.4,21.5,95.9,997.0,76.3,0.6,1.3,314.8,0.00,20.9,23.7,"05:30:40",1
"20/07/08","05:50",0.4,21.7,95.9,997.4,164.4,0.8,1.7,116.7,0.00,21.1,23.5,"05:42:24",1
"20/07/08","06:00",0.6,21.8,96.0,998.2,260.9,1.0,2.2,235.2,0.00,21.2,23.4,"05:59:52",1
"20/07/08","06:10",0.6,22.0,95.9,999.6,227.0,1.1,2.1,226.4,0.00,21.4,23.3,"06:03:44",1
"20/07/08","06:20",0.8,21.9,96.0,999.8,274.0,1.1,2.7,229.9,0.00,21.3,23.3,"06:15:12",1
"20/07/08","06:30",0.4,21.9,96.0,999.3,30.2,0.6,1.7,117.8,0.00,21.3,23.6,"06:29:44",1
"20/07/08","06:40",0.0,21.9,96.0,999.6,248.8,0.8,1.6,339.8,0.00,21.3,23.4,"06:38:40",1
"20/07/08","06:50",0.0,21.8,96.0,999.6,350.8,0.7,1.7,341.3,0.00,21.2,23.5,"06:49:36",1
"20/07/08","07:00",0.0,21.8,96.1,999.8,278.2,0.6,1.7,336.3,0.00,21.2,23.3,"06:50:08",1
"20/07/08","07:10",0.0,21.9,96.1,999.8,45.9,0.3,1.2,328.4,0.00,21.3,23.2,"07:00:02",1
"20/07/08","07:20",0.2,21.9,96.2,999.8,332.3,1.3,2.4,318.2,0.01,21.3,23.5,"07:15:04",1
"20/07/08","07:30",0.0,22.0,96.2,999.8,10.6,0.7,1.6,347.1,0.03,21.4,23.3,"07:28:56",1
"20/07/08","07:40",0.0,21.9,96.3,999.6,323.3,1.2,2.4,343.0,0.05,21.3,23.3,"07:34:48",1
"20/07/08","07:50",0.0,22.0,96.4,999.8,291.8,1.0,2.1,306.8,0.07,21.4,23.4,"07:46:00",1
"20/07/08","08:00",0.0,22.4,96.3,999.8,333.0,0.7,1.7,342.0,0.09,21.8,23.1,"07:53:04",1
"20/07/08","08:10",0.0,22.6,96.2,999.6,306.3,1.0,3.3,343.5,0.13,22.0,23.5,"08:04:48",1
"20/07/08","08:20",0.0,22.8,96.3,999.8,314.3,1.0,2.5,335.9,0.15,22.2,23.4,"08:16:00",1
"20/07/08","08:30",0.0,22.8,96.0,1000.3,306.5,1.0,2.8,339.0,0.14,22.2,23.2,"08:28:56",1
"20/07/08","08:40",0.0,22.9,96.1,1000.5,227.7,1.0,1.9,233.9,0.14,22.3,23.5,"08:34:56",1
"20/07/08","08:50",0.0,23.3,96.0,1000.3,119.4,0.5,1.4,114.0,0.14,22.7,23.6,"08:48:56",1
"20/07/08","09:00",0.0,23.5,95.9,1000.8,26.8,0.6,1.4,5.2,0.16,22.8,23.6,"08:54:56",1
"20/07/08","09:10",0.0,23.7,95.7,1000.3,41.4,0.5,1.4,64.1,0.15,23.0,23.6,"09:06:24",1
"20/07/08","09:20",0.0,24.3,94.9,1000.3,37.0,0.5,1.4,119.5,0.26,23.5,23.6,"09:18:24",1
"20/07/08","09:30",0.0,23.9,94.3,1000.3,128.4,1.2,2.8,129.1,0.18,23.0,23.9,"09:24:24",1
"20/07/08","09:40",0.0,24.4,93.8,1000.0,100.4,1.1,2.4,119.4,0.29,23.4,23.9,"09:32:32",1
"20/07/08","09:50",0.0,24.5,92.8,999.8,106.4,0.8,2.2,120.0,0.17,23.3,24.2,"09:40:08",1
"20/07/08","10:00",0.0,25.5,92.1,999.6,83.5,0.5,1.2,128.5,0.33,24.2,24.2,"09:54:48",1
"20/07/08","10:10",0.0,26.0,90.2,999.1,165.6,0.6,1.6,2.4,0.36,24.3,24.2,"10:02:16",1
"20/07/08","10:20",0.0,26.7,87.7,999.8,143.6,0.7,1.9,128.3,0.42,24.5,24.4,"10:17:20",1
"20/07/08","10:30",0.0,27.4,83.2,1000.5,106.1,0.7,2.0,111.9,0.47,24.3,24.7,"10:28:40",1
"20/07/08","10:40",0.0,27.6,78.9,1000.5,145.9,1.2,2.6,124.7,0.44,23.6,24.7,"10:37:04",1
"20/07/08","10:50",0.0,27.8,76.6,1000.5,158.7,1.2,3.3,217.4,0.43,23.4,24.8,"10:41:52",1
"20/07/08","11:00",0.0,28.0,75.4,1000.5,194.6,1.7,3.4,186.2,0.56,23.3,24.9,"10:54:48",1
"20/07/08","11:10",0.0,28.3,73.0,1000.3,209.2,2.3,3.9,217.0,0.63,23.0,25.2,"11:01:44",1
"20/07/08","11:20",0.0,28.6,72.3,1000.3,178.3,1.8,3.7,141.5,0.64,23.2,25.4,"11:18:40",1
"20/07/08","11:30",0.0,29.0,71.5,1000.0,184.3,1.7,4.5,187.9,0.63,23.4,25.6,"11:26:56",1
"20/07/08","11:40",0.0,29.0,70.6,1000.3,156.5,2.0,3.4,120.5,0.65,23.2,25.9,"11:32:32",1
"20/07/08","11:50",0.0,29.0,71.0,1000.0,155.9,2.1,4.3,175.4,0.63,23.2,26.1,"11:49:44",1
"20/07/08","12:00",0.0,29.2,71.4,1000.0,152.6,1.7,3.5,181.9,0.59,23.5,26.3,"11:51:04",1
"20/07/08","12:10",0.0,28.2,70.4,999.8,132.8,2.2,5.6,112.5,0.38,22.3,26.5,"12:03:44",1
"20/07/08","12:20",0.0,28.0,71.7,999.3,168.4,1.5,2.8,111.1,0.24,22.5,26.5,"12:13:20",1
"20/07/08","12:30",0.0,28.2,70.9,999.6,189.6,1.6,3.9,218.7,0.28,22.5,26.7,"12:29:52",1
"20/07/08","12:40",0.0,28.7,70.0,999.1,202.8,1.3,3.6,230.1,0.33,22.7,26.7,"12:31:44",1
"20/07/08","12:50",0.0,28.8,69.4,999.6,211.5,1.5,3.1,194.4,0.31,22.7,26.9,"12:40:48",1
"20/07/08","13:00",0.0,29.6,69.0,999.8,177.7,1.2,2.7,147.6,0.48,23.3,26.9,"12:55:12",1
"20/07/08","13:10",0.0,29.5,65.9,999.8,294.3,1.0,1.9,131.0,0.32,22.5,26.9,"13:00:24",1
"20/07/08","13:20",0.0,29.6,63.7,999.8,239.4,1.0,2.6,218.9,0.34,22.0,26.9,"13:18:32",1
"20/07/08","13:30",0.0,29.7,64.5,999.8,211.1,1.3,3.5,221.8,0.35,22.3,26.9,"13:29:12",1
"20/07/08","13:40",0.0,29.5,66.1,999.6,179.0,1.1,2.5,208.3,0.25,22.5,26.9,"13:30:16",1
"20/07/08","13:50",0.0,29.0,66.4,999.1,214.9,1.6,3.1,226.4,0.21,22.1,27.0,"13:47:12",1
"20/07/08","14:00",0.0,28.8,66.9,998.9,203.4,1.6,2.9,157.5,0.22,22.1,26.9,"13:59:12",1
"20/07/08","14:10",0.0,28.9,66.8,999.1,146.5,1.5,3.3,113.9,0.25,22.1,27.1,"14:03:04",1
"20/07/08","14:20",0.0,29.3,65.2,999.1,194.9,0.8,1.9,226.6,0.25,22.1,27.1,"14:17:36",1
"20/07/08","14:30",0.0,29.5,65.2,999.3,222.3,1.0,2.6,192.6,0.20,22.3,27.1,"14:29:06",1
"20/07/08","14:40",0.0,29.2,66.6,999.1,209.2,1.0,2.4,201.7,0.18,22.4,27.1,"14:37:52",1
"20/07/08","14:50",0.0,29.2,66.0,999.3,160.3,0.8,1.9,227.5,0.19,22.2,27.1,"14:49:36",1
"20/07/08","15:00",0.0,29.0,66.5,999.3,212.6,1.7,3.7,219.6,0.19,22.2,27.0,"14:55:20",1
"20/07/08","15:10",0.0,29.2,65.1,999.3,226.3,1.0,2.2,223.7,0.18,22.0,27.1,"15:07:44",1
"20/07/08","15:20",0.0,29.3,64.7,999.3,228.8,1.2,2.7,232.8,0.19,22.0,27.2,"15:11:36",1
"20/07/08","15:30",0.0,29.2,64.4,999.1,155.6,0.8,1.4,138.0,0.16,21.8,27.2,"15:26:32",1
"20/07/08","15:40",0.0,29.1,64.8,998.9,222.3,1.0,2.4,210.9,0.14,21.8,27.0,"15:36:56",1
"20/07/08","15:50",0.0,29.0,65.3,999.1,228.2,1.2,2.7,216.1,0.13,21.9,27.0,"15:43:36",1
"20/07/08","16:00",0.0,29.2,66.5,998.6,203.6,1.2,3.4,224.7,0.15,22.4,27.0,"15:51:28",1
"20/07/08","16:10",0.0,29.7,64.5,998.9,204.8,1.1,2.9,227.5,0.27,22.3,27.3,"16:02:00",1
"20/07/08","16:20",0.0,29.8,61.1,999.1,145.0,1.2,2.1,117.4,0.23,21.5,27.2,"16:12:24",1
"20/07/08","16:30",0.0,28.8,63.6,998.6,163.9,1.8,4.2,124.9,0.13,21.3,27.1,"16:26:40",1
"20/07/08","16:40",0.0,27.7,65.6,998.6,194.2,2.6,5.9,211.0,0.04,20.7,27.0,"16:31:52",1
"20/07/08","16:50",0.0,27.8,66.7,998.2,180.1,1.7,3.4,201.6,0.05,21.1,27.0,"16:41:12",1
"20/07/08","17:00",0.0,27.4,69.2,998.2,160.2,2.1,4.3,180.4,0.05,21.3,26.9,"16:52:08",1
"20/07/08","17:10",0.0,27.3,69.8,997.9,177.3,1.5,3.1,137.2,0.07,21.3,26.8,"17:07:36",1
"20/07/08","17:20",0.0,27.3,70.6,997.7,164.7,2.0,3.7,130.2,0.07,21.5,26.7,"17:14:56",1
"20/07/08","17:30",0.0,26.5,72.8,998.2,197.6,2.8,6.0,223.2,0.04,21.3,26.6,"17:28:08",1
"20/07/08","17:40",0.2,25.5,77.3,998.6,174.4,2.2,5.0,188.9,0.01,21.3,26.4,"17:30:56",1
"20/07/08","17:50",0.4,25.1,80.7,998.6,158.7,1.3,3.1,120.8,0.01,21.6,26.3,"17:49:44",1
"20/07/08","18:00",0.4,24.7,83.6,999.1,155.9,1.5,2.8,159.4,0.00,21.8,26.3,"17:51:36",1
"20/07/08","18:10",0.0,23.9,85.7,999.3,159.6,1.7,3.1,160.2,0.00,21.4,26.0,"18:06:20",1
"20/07/08","18:20",0.2,23.7,87.1,999.6,165.4,1.2,2.6,184.5,0.00,21.5,26.1,"18:18:56",1
"20/07/08","18:30",0.2,23.4,88.0,1000.0,133.9,0.7,1.7,186.4,0.00,21.3,25.9,"18:21:36",1
"20/07/08","18:40",4.8,23.5,88.8,1000.0,119.7,1.0,2.0,137.2,0.00,21.6,25.8,"18:35:12",1
"20/07/08","18:50",1.0,22.9,89.3,1000.3,183.1,0.5,2.2,162.3,0.00,21.1,25.7,"18:41:04",1
"20/07/08","19:00",0.2,22.7,89.7,1000.0,250.2,0.3,0.6,288.5,0.00,21.0,25.6,"18:56:24",1
"20/07/08","19:10",0.8,22.9,90.0,1000.3,320.7,0.7,1.1,348.5,0.00,21.2,25.5,"19:05:04",1
"20/07/08","19:20",0.4,22.9,90.3,1000.3,283.6,0.5,0.9,296.0,0.00,21.3,25.3,"19:12:16",1
"20/07/08","19:30",0.6,22.9,90.6,1000.5,301.5,0.6,1.2,337.7,0.00,21.3,25.3,"19:24:00",1
"20/07/08","19:40",0.0,22.9,90.9,1000.3,231.9,0.6,1.3,219.9,0.00,21.4,25.3,"19:34:56",1
"20/07/08","19:50",0.0,22.8,91.1,1000.8,240.6,0.5,1.1,227.9,0.00,21.3,25.2,"19:49:36",1
"20/07/08","20:00",0.0,23.0,91.4,1000.8,271.8,0.6,1.3,218.3,0.00,21.6,25.3,"19:50:24",1
"20/07/08","20:10",0.0,23.0,91.5,1000.5,229.3,0.5,1.3,236.8,0.00,21.6,25.2,"20:03:44",1
"20/07/08","20:20",0.2,23.0,91.7,1001.0,283.3,0.7,1.0,254.5,0.00,21.6,25.2,"20:12:40",1
"20/07/08","20:30",0.4,22.9,91.9,1001.0,273.2,0.5,1.1,350.4,0.00,21.6,24.9,"20:29:38",1
"20/07/08","20:40",0.2,23.0,92.1,1001.2,313.1,0.7,1.4,318.4,0.00,21.7,25.1,"20:39:36",1
"20/07/08","20:50",0.2,23.0,92.2,1001.2,304.6,0.7,1.2,305.6,0.00,21.7,25.0,"20:40:08",1
"20/07/08","21:00",0.6,22.9,92.4,1001.5,270.3,0.6,1.2,319.0,0.00,21.6,25.1,"20:59:52",1
"20/07/08","21:10",0.8,22.9,92.6,1001.0,267.7,0.6,1.6,331.0,0.00,21.7,25.1,"21:01:20",1
"20/07/08","21:20",0.2,22.9,92.7,1001.2,262.6,0.3,1.0,266.2,0.00,21.7,24.9,"21:14:56",1
"20/07/08","21:30",0.0,22.9,92.8,1001.5,303.3,0.5,1.0,261.7,0.00,21.7,24.9,"21:24:08",1
"20/07/08","21:40",0.0,22.8,92.9,1001.5,281.0,0.5,0.9,334.8,0.00,21.6,25.0,"21:39:52",1
"20/07/08","21:50",0.0,22.9,93.0,1001.2,320.2,0.3,0.8,352.0,0.00,21.7,24.9,"21:47:36",1
"20/07/08","22:00",0.0,22.9,93.2,1001.2,330.8,0.6,1.2,340.4,0.00,21.8,24.8,"21:50:02",1
"20/07/08","22:10",0.0,23.0,93.3,1001.7,315.3,0.7,1.4,337.7,0.00,21.9,24.8,"22:01:36",1
"20/07/08","22:20",0.0,23.0,93.3,1001.5,293.4,0.5,1.0,323.3,0.00,21.9,24.6,"22:12:08",1
"20/07/08","22:30",0.0,22.9,93.4,1001.7,270.9,0.5,1.1,321.8,0.00,21.8,24.7,"22:28:24",1
"20/07/08","22:40",0.0,22.9,93.5,1001.5,287.8,0.3,0.8,262.8,0.00,21.8,24.7,"22:30:16",1
"20/07/08","22:50",0.0,22.9,93.6,1001.5,315.2,0.6,1.0,312.1,0.00,21.9,24.7,"22:41:52",1
"20/07/08","23:00",0.0,22.8,93.7,1001.5,311.0,0.6,1.0,351.2,0.00,21.8,24.7,"22:50:56",1
"20/07/08","23:10",0.0,22.8,93.8,1001.2,245.1,0.3,0.6,241.1,0.00,21.8,24.6,"23:05:36",1
"20/07/08","23:20",0.0,22.8,93.8,1001.2,262.3,0.3,0.6,287.9,0.00,21.8,24.7,"23:13:04",1
"20/07/08","23:30",0.0,22.8,94.0,1001.2,308.3,0.7,1.3,336.2,0.00,21.8,24.6,"23:29:52",1
"20/07/08","23:40",0.0,22.9,94.0,1001.2,1.9,0.6,1.1,336.1,0.00,21.9,24.5,"23:30:08",1
"20/07/08","23:50",0.0,22.7,94.1,1001.2,264.0,0.3,1.0,299.8,0.00,21.7,24.6,"23:49:28",1
"20/07/08","24:00",0.0,22.8,94.2,1000.8,317.3,0.5,1.0,342.3,0.00,21.9,24.5,"23:55:44",1
